Theta_e
292 293 292 287 291 290 290 292 292 292 294 294 289 289 292 292 286 284 292 294 292 294 297 299 300 301 301 302 303 305 305 305 305 304 303 304 305 306 305 306 307 307 309 310 309 308 308 307 305 304 304 303 302 300 300 301 302 301 301 300 300 301 303 305 307 310 312 313 314 314 313 314 315 315 316 317 317 317 317 317 317 319 320 319 318 317 317
291 291 291 292 287 288 290 290 292 293 294 293 294 293 295 294 291 293 294 294 294 297 299 300 302 304 304 303 304 303 302 302 302 303 303 304 304 304 305 306 308 310 310 310 309 308 307 305 305 305 306 306 305 304 303 302 301 301 300 299 299 300 301 302 305 307 308 308 308 308 308 308 309 310 310 310 310 311 312 313 314 313 315 315 315 315 315
287 290 292 292 291 289 287 289 290 291 291 291 293 294 294 295 294 294 293 293 293 299 302 301 303 304 305 303 302 302 303 302 300 301 301 302 303 305 308 308 309 310 311 310 308 307 306 306 306 306 307 306 306 304 303 302 302 302 300 299 299 300 301 302 303 304 304 304 304 305 306 306 307 305 306 304 304 304 305 305 306 306 308 311 311 313 314
284 288 289 290 290 290 288 288 289 290 289 287 289 289 293 292 291 293 293 290 291 298 301 302 303 303 302 301 302 302 303 301 299 300 301 303 305 306 307 308 309 309 308 309 309 309 310 311 309 308 307 307 306 304 304 303 302 301 299 299 299 300 301 302 301 301 301 301 301 301 302 303 303 301 301 300 300 301 301 301 301 300 302 305 307 308 309
282 287 289 288 287 285 282 284 288 290 291 291 292 292 293 293 294 290 287 289 296 298 300 299 300 300 299 300 301 302 301 301 302 303 303 304 304 305 306 306 307 307 308 309 310 310 309 309 310 309 308 306 305 306 305 305 302 299 298 298 298 299 300 301 301 301 300 299 299 298 298 299 299 299 299 298 298 299 299 299 298 299 301 301 301 301 304
282 285 286 287 282 275 277 290 293 292 290 290 289 289 291 293 294 292 294 294 296 297 298 298 297 297 298 299 302 304 303 302 303 304 304 304 304 304 304 304 305 306 307 308 309 310 310 309 308 307 306 305 305 304 302 301 300 300 299 298 298 298 299 300 300 300 299 298 297 297 296 296 297 297 297 298 298 298 297 296 297 298 298 298 298 299 300
281 284 283 279 273 275 287 291 293 293 292 292 290 291 292 293 294 294 293 294 295 297 298 299 299 300 301 302 302 304 305 306 305 304 305 306 306 307 306 306 306 307 307 307 308 309 309 308 308 307 305 303 302 301 301 301 301 300 300 299 298 298 298 300 300 299 298 297 296 296 295 295 295 295 296 296 296 297 297 296 297 297 298 297 297 297 297
285 282 280 272 273 285 289 290 291 293 292 291 291 289 291 292 293 294 293 294 295 296 297 298 300 300 301 303 304 304 305 306 306 305 305 306 306 306 307 307 307 307 307 307 307 306 306 305 306 306 304 303 302 302 302 300 301 300 300 299 299 299 298 299 299 299 298 297 295 295 295 294 294 294 294 295 295 295 295 296 296 296 296 297 297 296 296
278 280 279 278 285 284 286 287 288 290 288 289 287 283 288 293 294 294 293 294 295 296 297 298 299 300 301 299 299 303 304 305 307 306 305 306 306 307 308 308 308 309 308 307 307 305 304 304 304 303 303 302 301 300 300 301 300 299 298 298 299 299 298 299 299 299 298 297 295 294 294 293 293 294 294 294 295 296 295 295 295 295 296 295 296 297 295
284 279 277 278 277 274 280 288 291 294 295 295 295 290 287 294 295 296 295 294 295 296 297 297 298 299 296 293 295 301 304 305 308 307 308 307 306 306 307 307 307 307 307 306 306 305 303 302 302 302 301 301 299 298 298 298 298 298 297 298 299 300 300 300 299 299 298 297 295 294 294 293 293 294 295 296 296 293 296 295 295 296 295 295 293 294 294
282 279 276 275 273 277 286 288 292 294 295 295 297 290 283 293 295 296 296 295 296 297 296 297 298 295 290 292 296 301 302 304 303 303 305 306 305 304 304 304 303 304 304 303 301 300 301 301 303 302 300 299 298 298 299 299 298 298 298 298 298 298 300 301 300 300 299 297 295 294 293 293 294 293 293 294 294 292 294 297 296 295 292 294 293 292 292
281 279 277 275 279 279 286 290 292 294 295 296 292 279 280 292 295 297 297 296 296 297 298 298 297 294 290 292 297 301 302 302 302 300 301 302 303 303 303 302 302 302 300 300 300 301 300 301 302 301 300 300 297 297 298 299 298 298 298 299 299 300 300 301 300 299 299 296 294 293 292 292 294 294 293 293 293 293 292 294 293 294 294 293 292 292 290
281 280 279 281 282 288 291 291 293 293 298 293 282 277 286 296 296 297 298 297 298 298 298 298 295 297 299 299 300 299 300 299 300 300 300 299 299 299 300 300 296 299 299 299 299 299 300 300 300 300 299 298 297 298 298 298 297 299 300 300 299 299 300 300 299 298 297 296 293 292 293 293 293 292 293 293 293 292 292 292 292 292 291 291 291 291 291
279 280 278 278 282 289 293 293 296 296 291 282 280 291 298 297 295 294 297 296 293 294 294 296 296 298 299 298 299 298 298 297 297 298 298 298 298 298 297 295 295 297 298 297 297 298 298 299 298 298 297 296 296 297 297 297 298 300 300 300 299 299 299 299 298 297 293 293 292 292 291 292 291 291 291 291 291 291 294 293 290 290 290 290 292 292 291
283 281 278 277 274 286 294 294 290 295 287 287 294 296 294 295 295 296 295 295 294 294 292 294 294 295 295 296 296 296 296 296 295 295 295 294 294 295 295 296 296 296 295 296 296 296 297 297 297 296 293 291 293 294 295 296 298 298 298 298 298 298 298 297 293 292 292 291 291 292 291 291 291 291 291 290 290 290 291 290 289 289 289 290 290 291 291
278 278 276 278 285 289 295 294 287 292 294 298 296 298 295 292 291 294 297 295 296 292 293 292 293 294 293 293 294 294 294 295 295 295 295 295 294 294 295 295 296 295 294 295 295 295 296 295 296 294 294 291 291 291 293 296 296 296 296 296 296 295 292 293 292 291 290 290 290 291 291 291 290 290 290 290 290 291 291 291 291 289 290 289 290 290 289
283 281 285 289 293 294 296 297 296 297 298 295 295 297 297 295 296 292 293 293 293 293 294 293 292 292 291 291 292 291 291 292 292 293 293 292 292 292 293 294 294 293 293 293 293 293 294 294 294 292 291 291 289 289 293 295 294 294 293 292 290 290 290 290 290 290 290 290 290 290 290 290 290 290 289 289 289 290 290 291 291 290 290 290 290 290 289
291 291 291 293 291 291 294 295 294 295 297 293 292 296 295 290 290 291 294 293 293 293 292 293 292 291 290 290 290 291 291 291 290 290 290 290 291 292 293 293 294 292 293 291 291 291 293 293 293 292 291 290 289 291 293 292 292 291 289 288 288 289 289 289 289 289 289 289 289 289 289 290 290 292 291 290 290 290 290 290 291 290 290 290 290 290 290
286 282 291 291 291 292 292 293 294 293 293 295 293 294 293 291 291 292 292 292 292 292 291 292 292 292 292 291 291 291 290 290 291 290 290 290 291 291 291 293 291 292 290 290 290 289 289 292 292 291 290 290 290 291 289 290 289 288 287 287 287 288 288 289 289 289 288 290 291 290 289 290 291 291 292 291 290 290 290 290 290 290 290 290 290 290 290
285 286 287 288 289 289 291 292 292 294 294 291 290 292 292 291 290 290 291 290 290 290 290 291 292 292 292 290 290 289 289 290 291 291 291 291 291 292 292 292 290 289 289 289 289 289 290 291 291 290 289 288 288 288 288 287 287 286 286 287 287 288 288 289 290 290 290 288 289 290 290 289 290 290 291 291 290 290 289 290 290 290 290 290 289 290 290
288 290 290 290 291 291 291 289 289 291 292 291 289 288 289 289 289 290 290 290 292 291 292 292 291 290 290 290 290 289 290 291 291 292 292 291 291 291 290 290 289 289 289 288 288 288 289 290 289 288 287 287 287 287 286 286 285 285 286 286 287 287 288 289 289 290 290 289 290 290 290 289 290 291 291 290 290 291 291 291 292 291 291 290 291 291 291
284 285 287 288 285 286 288 286 288 290 289 290 288 289 288 287 288 289 289 290 291 291 291 291 290 289 289 289 289 289 290 290 290 290 290 290 290 290 290 290 289 288 287 287 287 287 288 289 288 287 286 286 286 286 286 285 285 284 285 286 287 287 288 289 289 290 290 290 289 289 290 290 289 289 288 288 290 291 291 289 289 289 290 291 292 293 292
283 288 289 288 290 289 290 291 290 288 288 290 289 289 289 289 290 290 289 288 288 289 289 290 289 289 289 289 290 289 289 289 290 289 289 289 288 288 289 288 287 287 288 287 287 287 288 288 287 286 285 285 285 285 285 284 284 284 285 285 287 288 288 288 289 289 289 290 289 290 289 289 289 288 289 289 287 287 288 288 288 288 288 289 290 290 292
289 289 289 289 288 288 289 288 288 289 289 288 287 287 288 288 288 288 288 288 287 287 288 288 289 289 290 290 290 288 288 288 288 288 289 289 289 288 288 288 287 287 287 287 288 287 288 287 285 285 284 284 284 284 284 283 284 284 285 285 286 287 288 288 288 288 289 289 288 289 289 289 288 288 287 287 287 287 286 286 287 288 288 288 288 289 289
288 288 288 288 287 286 286 287 286 286 287 286 285 285 286 287 287 287 286 286 287 287 287 287 288 289 289 289 289 288 287 288 288 288 287 287 287 288 287 287 287 287 288 288 288 287 286 286 285 284 283 283 284 283 282 281 281 281 283 284 285 286 287 287 288 288 288 288 288 288 287 287 287 287 287 287 286 286 287 285 285 286 287 288 288 288 288
287 288 287 284 284 284 285 283 283 282 282 283 283 284 285 285 285 285 285 286 286 287 287 287 287 288 289 287 287 287 287 287 287 287 287 287 287 287 287 287 288 288 287 287 286 285 285 284 284 283 282 282 282 282 280 278 279 280 281 283 285 286 287 287 287 288 288 287 287 288 288 288 287 287 287 287 287 287 285 285 285 285 285 286 286 287 288
282 283 282 282 282 282 281 281 282 282 282 283 283 283 284 284 284 285 286 286 286 286 286 286 287 287 286 286 285 286 286 286 286 287 287 287 287 288 288 288 287 286 284 284 284 284 282 282 281 281 281 281 281 280 278 277 277 278 280 282 284 283 282 284 287 288 288 288 288 288 287 287 287 286 286 286 287 286 285 284 284 284 285 285 285 286 287
281 281 281 280 280 280 281 281 281 281 282 282 282 282 283 284 283 282 282 283 283 284 284 284 284 284 284 285 286 285 286 286 286 287 287 287 288 289 288 286 285 284 284 282 282 282 281 281 280 280 279 280 280 278 276 275 276 277 279 281 283 284 286 285 286 287 288 288 288 287 287 287 287 287 287 286 286 285 285 285 285 284 283 284 284 284 285
277 276 277 278 279 279 280 281 281 281 282 283 283 283 283 281 281 282 282 283 284 284 284 284 284 283 284 284 285 284 285 285 285 286 287 288 289 288 287 284 284 282 281 281 281 281 281 280 280 279 279 280 278 275 275 275 275 277 278 280 282 284 285 286 287 287 287 287 287 287 287 287 287 287 286 286 285 285 285 284 284 283 282 281 281 283 284
270 272 274 276 278 278 278 278 280 281 281 281 281 280 280 280 279 279 279 280 281 280 281 283 282 283 284 283 283 284 284 284 285 285 286 286 287 286 285 283 282 282 282 281 281 281 279 279 278 278 279 278 274 273 273 273 274 275 277 278 280 282 283 285 286 286 286 287 287 285 286 286 286 286 285 285 285 284 284 283 283 281 280 281 281 282 281
268 270 273 275 276 278 278 278 278 279 279 276 274 273 275 275 273 274 275 276 276 276 277 278 278 278 279 280 281 282 282 282 282 282 282 283 283 284 284 283 281 282 283 283 283 280 278 278 278 278 279 276 274 273 272 272 273 275 276 278 280 281 281 282 283 285 286 286 285 285 285 285 285 285 284 284 283 284 284 283 280 280 280 281 281 282 282
269 274 275 278 277 274 273 275 274 273 272 271 270 270 271 271 270 271 272 273 274 275 275 275 275 276 277 278 278 278 278 278 278 279 279 280 281 282 282 282 281 278 279 279 278 277 276 276 275 277 275 272 272 271 271 271 272 273 275 275 278 280 281 281 282 283 284 284 285 284 284 284 284 284 283 283 283 282 282 281 280 280 281 280 280 280 281
268 271 275 273 268 269 269 269 268 267 267 267 268 270 270 271 271 271 271 272 271 271 272 272 273 274 274 274 274 275 275 275 276 276 277 278 279 281 281 281 279 277 277 276 275 274 272 272 272 273 270 270 269 269 270 270 271 272 274 276 277 278 277 279 280 282 281 282 282 283 283 283 284 283 283 282 281 281 280 280 279 278 279 279 279 278 278
264 266 266 264 263 264 264 264 265 264 265 266 267 268 268 269 269 268 268 268 268 268 269 270 270 270 271 271 271 272 273 273 274 275 276 277 278 279 279 276 274 272 272 271 270 270 270 271 270 269 268 268 268 268 269 270 271 272 273 275 276 277 278 278 279 280 280 279 280 279 281 281 282 282 281 280 280 280 279 278 277 277 277 276 275 275 276
260 261 261 261 262 262 262 262 262 262 263 262 263 264 265 265 265 265 266 266 266 266 267 268 268 268 269 269 269 270 271 271 272 273 274 275 275 276 273 271 271 271 271 271 270 269 269 268 267 267 267 266 267 267 269 269 271 271 273 274 275 276 277 277 278 278 279 280 280 280 280 280 280 277 278 279 279 278 277 276 276 275 274 273 272 273 274
259 258 259 259 260 260 260 260 261 260 260 260 261 261 262 263 263 263 264 264 266 266 266 266 267 267 268 268 269 269 270 270 271 271 272 273 274 274 273 272 272 272 271 272 272 267 266 266 266 265 266 266 267 267 269 270 270 271 271 273 274 274 275 275 276 277 277 278 278 278 279 277 277 277 277 277 277 277 277 275 273 273 274 273 271 271 270
258 257 258 258 259 258 258 259 259 259 259 259 260 260 260 261 262 263 264 264 265 265 266 266 266 266 267 268 269 269 270 270 271 271 272 273 273 273 272 272 271 270 270 270 269 264 264 266 265 265 266 267 268 268 268 267 269 270 271 272 273 274 274 274 274 275 275 275 276 276 275 275 275 275 274 275 275 275 274 274 272 272 272 271 271 270 270
257 257 256 257 257 257 257 258 259 259 259 259 259 260 261 261 262 262 263 264 264 265 265 265 265 266 266 267 267 268 269 270 270 271 272 273 273 271 270 271 270 269 268 268 265 263 265 266 265 265 266 267 268 268 268 267 267 268 270 271 272 273 273 273 273 273 273 274 273 273 273 274 274 273 274 274 273 272 272 272 271 270 270 269 270 269 269
255 256 256 256 257 257 257 258 258 259 259 258 259 260 261 262 262 263 262 263 264 265 264 264 265 265 265 266 266 268 269 270 271 271 271 271 270 268 268 267 263 263 263 264 264 264 265 265 265 265 266 267 267 267 267 267 267 269 270 271 271 272 272 272 272 272 271 271 272 272 273 273 273 273 273 272 271 270 269 269 269 269 269 268 268 268 268
254 255 255 256 256 256 257 257 258 259 260 260 260 260 261 262 262 262 262 262 263 264 264 264 264 264 265 266 267 267 269 270 268 267 267 267 266 265 265 264 263 263 263 264 264 265 264 264 264 265 266 266 267 267 268 268 268 269 270 271 271 271 271 270 271 270 270 271 270 269 270 270 270 270 270 269 269 268 268 268 268 267 267 267 267 267 267
254 254 255 255 256 257 257 257 257 259 259 260 260 261 261 261 261 261 261 262 262 263 264 264 264 265 265 266 267 267 267 266 264 263 264 265 264 265 265 264 264 261 262 264 263 263 263 264 264 264 264 266 266 266 267 267 269 270 270 270 270 270 269 270 270 270 269 269 269 269 269 268 268 268 267 267 267 267 267 267 267 267 267 266 266 265 265
253 254 254 255 255 256 257 258 258 259 259 260 260 260 260 261 260 260 260 261 261 262 263 265 265 265 265 265 265 264 264 263 262 261 261 260 260 261 261 262 262 261 263 262 263 263 263 263 263 263 264 264 265 265 265 267 268 269 269 269 268 268 268 268 268 268 268 268 268 268 267 267 267 267 266 266 266 266 266 265 265 265 265 264 264 264 264
252 252 253 254 254 255 256 257 257 258 258 259 259 259 258 258 258 258 258 258 259 261 261 262 262 262 262 262 262 262 262 262 262 261 261 260 260 260 258 259 261 261 262 262 262 261 262 262 262 263 263 264 264 264 266 267 267 268 268 267 267 267 267 267 267 267 267 267 266 267 267 267 266 266 265 265 264 264 264 264 264 263 263 263 263 263 263
252 252 253 253 254 255 256 257 257 257 257 257 257 256 256 256 256 256 257 257 258 258 258 258 258 259 259 260 260 260 259 259 259 260 261 261 261 260 260 259 260 260 261 260 261 260 261 261 261 262 262 263 263 264 265 265 266 266 266 266 266 267 266 266 267 267 266 266 266 266 266 266 266 266 265 264 264 263 263 263 263 262 262 262 262 262 262
252 253 254 254 255 255 256 256 256 257 257 257 256 256 256 256 256 256 256 256 256 257 257 256 256 257 258 259 259 258 258 258 258 258 258 259 260 258 259 260 259 260 260 260 260 260 260 260 261 261 262 262 262 262 263 263 263 263 263 263 263 263 263 263 264 264 264 264 264 264 264 265 264 264 264 263 263 262 262 262 262 262 262 262 262 261 261
255 256 256 257 256 256 256 257 258 259 258 258 258 258 258 258 258 258 258 257 256 256 256 256 256 256 256 257 260 259 258 258 258 258 258 258 257 258 259 259 259 259 259 259 259 259 259 260 260 261 261 261 261 261 261 261 261 261 261 261 261 261 261 261 261 261 262 262 262 262 262 262 262 262 262 262 262 261 261 261 261 261 261 261 261 261 261
257 257 257 256 256 257 257 258 259 259 259 258 258 258 259 259 259 259 258 258 257 257 257 256 256 256 256 256 256 258 259 258 258 258 258 258 259 259 259 259 259 259 258 258 258 258 259 259 259 259 260 260 260 261 260 260 260 260 260 260 260 260 260 260 260 260 260 260 261 261 261 261 261 261 261 261 261 261 261 260 260 260 260 260 260 260 260
257 257 257 257 256 256 257 257 257 257 256 256 257 258 259 259 259 259 259 258 257 257 256 256 256 256 256 256 257 257 256 257 258 258 257 257 258 258 258 258 258 258 258 258 258 258 258 258 259 259 259 259 259 259 259 259 259 259 259 259 259 258 259 259 259 259 259 260 260 259 259 259 259 260 260 260 260 260 260 260 259 259 259 259 259 260 259
257 257 258 258 257 257 256 256 256 256 256 256 256 257 258 258 258 258 258 258 258 258 257 256 256 256 256 257 256 256 257 257 257 256 257 257 257 257 257 258 258 258 257 257 257 257 257 258 258 258 258 258 258 258 258 258 258 258 258 258 258 258 258 258 258 259 259 259 259 259 259 259 259 259 259 259 259 259 259 259 259 259 259 259 259 259 259
258 258 258 258 258 257 256 255 255 255 255 256 255 256 257 258 257 257 257 256 257 258 258 257 256 256 256 256 256 256 257 257 257 257 257 257 257 257 257 257 257 257 257 257 256 257 257 257 257 257 257 257 257 257 257 257 257 257 257 257 257 257 258 258 258 258 258 258 258 258 258 258 258 258 258 258 258 258 258 258 258 258 258 258 258 259 259
258 258 258 258 258 258 257 256 255 255 255 255 255 256 256 257 257 257 256 255 255 256 256 257 257 256 255 256 256 256 256 256 256 256 256 256 256 256 256 256 256 256 256 256 256 256 256 256 256 256 257 257 257 256 256 256 256 256 256 256 256 257 257 257 257 257 257 257 258 258 258 258 258 258 258 258 258 258 258 258 258 258 258 258 258 258 258
259 259 259 258 257 257 258 257 255 255 254 255 255 255 255 255 255 255 255 255 254 254 254 255 256 256 255 255 255 255 256 256 256 256 256 256 256 256 256 256 256 256 256 256 256 256 256 256 256 256 256 256 256 256 256 256 256 256 256 256 256 256 256 256 257 257 257 257 257 257 257 257 257 257 257 257 257 257 257 257 257 258 258 258 258 258 258
Wind_Speed
14 15 11 3 1 5 8 10 11 13 14 14 14 15 15 13 12 11 10 12 16 23 28 29 24 22 15 16 16 16 11 10 6 7 10 10 9 8 6 7 7 7 10 13 12 11 12 11 10 9 8 7 6 7 8 7 5 7 5 5 7 7 7 10 11 8 7 9 10 10 10 9 11 11 11 11 11 10 9 10 10 12 11 11 10 11 11
14 14 12 6 5 8 7 9 9 9 10 15 17 18 18 18 17 15 15 15 20 19 22 26 24 17 8 13 14 13 12 6 7 9 10 10 9 8 7 6 8 9 13 13 13 11 12 10 11 10 10 9 8 7 8 6 6 6 3 6 7 7 9 11 8 6 8 10 8 7 8 10 10 8 8 8 8 8 10 10 10 9 9 9 9 10 11
10 12 10 9 10 9 12 13 13 9 2 4 10 14 17 19 22 24 21 21 21 16 18 26 28 20 11 18 22 22 13 8 11 10 10 10 8 8 9 11 13 13 12 11 11 12 12 12 11 10 10 9 9 9 8 7 6 4 4 6 7 8 10 8 6 6 6 9 9 10 12 9 9 9 9 7 7 8 8 8 9 8 8 9 10 10 10
9 8 10 11 11 10 12 13 13 12 14 15 15 14 14 15 16 16 19 19 17 15 20 23 25 24 23 22 23 21 13 10 11 12 12 13 13 15 13 12 11 11 13 12 10 10 12 12 10 11 12 12 11 11 9 6 4 3 5 7 8 9 9 6 6 7 7 7 10 12 10 11 9 7 6 7 9 9 8 9 8 5 7 10 9 8 8
11 13 10 10 3 4 10 13 15 18 21 19 16 17 15 16 12 14 14 16 15 16 14 18 23 29 28 22 18 15 14 16 15 15 15 13 12 11 10 9 10 12 14 14 12 12 14 14 12 12 11 12 13 11 8 5 1 4 6 7 8 9 8 8 8 7 6 7 8 10 10 8 7 7 8 8 10 9 10 7 4 8 9 7 8 7 8
6 8 3 3 5 11 9 8 19 19 18 17 18 16 17 19 18 16 17 19 16 15 16 19 23 27 28 27 24 15 10 15 18 14 11 9 8 7 8 9 10 12 14 15 15 15 14 11 11 11 10 10 11 7 6 4 5 5 5 6 7 8 8 8 9 8 8 8 9 9 8 8 7 8 9 11 10 8 6 6 8 8 7 9 7 8 8
8 3 6 4 12 10 12 15 8 9 15 18 21 23 25 24 22 23 23 22 20 20 19 20 24 26 29 28 29 23 9 10 16 18 16 13 10 10 12 13 14 18 20 17 16 16 11 9 10 8 7 5 7 9 7 8 6 6 6 6 6 7 8 9 8 7 8 8 10 10 8 8 8 9 10 9 9 9 8 9 9 10 9 9 9 9 9
6 7 7 7 7 7 8 6 10 12 16 19 20 22 24 24 23 20 21 22 25 26 26 26 25 27 28 25 23 20 20 15 14 12 14 16 14 13 12 15 20 19 15 13 13 13 11 10 10 7 6 5 8 11 8 7 6 4 5 5 6 6 8 8 8 8 8 8 8 9 9 8 9 11 11 11 11 9 8 8 8 7 8 8 10 10 9
8 6 9 10 9 16 14 11 13 14 12 11 14 14 16 17 18 19 20 23 26 26 26 25 24 23 19 19 22 22 22 21 9 8 16 16 15 14 12 11 10 9 8 10 11 12 11 9 9 9 9 8 8 10 10 8 5 5 5 7 8 7 8 9 9 9 9 8 9 10 9 10 11 12 12 12 10 8 9 9 10 10 10 9 8 8 9
7 9 10 8 6 9 15 19 16 8 7 10 11 11 15 15 17 17 21 23 24 24 23 22 22 19 15 17 19 22 6 4 7 9 6 7 7 7 9 9 8 8 8 7 9 8 10 10 8 8 8 8 9 9 10 7 6 8 6 8 7 7 10 9 9 8 7 8 8 10 10 13 14 12 10 8 10 8 11 11 11 12 9 8 7 9 10
7 9 11 10 9 13 14 18 12 4 8 10 6 5 15 14 22 22 21 20 20 20 20 19 16 13 12 15 19 8 8 5 2 2 5 5 4 6 7 7 8 9 8 8 9 9 8 9 8 7 8 8 9 10 8 6 7 9 7 7 7 10 11 8 7 7 7 8 10 10 11 13 12 11 11 11 6 5 8 9 9 6 6 8 6 6 6
13 11 11 12 7 9 15 16 11 0 6 12 8 12 10 17 23 15 15 17 18 18 18 17 16 14 12 15 13 6 6 6 2 2 5 7 6 6 6 5 5 7 8 7 7 7 8 10 8 8 8 7 10 10 10 7 8 9 7 8 11 14 13 12 9 8 6 10 11 11 12 11 9 9 5 4 7 8 6 5 4 3 4 5 6 5 4
15 16 12 9 10 10 17 20 6 4 5 6 10 13 13 4 5 2 4 13 17 16 15 11 11 12 10 9 8 6 4 7 6 2 1 5 7 9 10 10 8 6 6 5 7 9 8 9 8 7 7 8 9 9 9 8 9 7 7 9 9 8 8 10 10 10 7 8 10 10 9 8 6 5 5 6 5 5 6 4 4 4 5 5 5 5 4
16 14 16 13 10 10 15 9 5 9 6 10 15 14 3 5 3 2 2 3 3 5 3 2 3 7 8 8 7 9 9 7 7 8 8 8 7 5 6 8 9 8 7 8 9 9 7 6 6 6 7 9 9 9 9 10 10 8 8 8 7 8 9 8 7 9 7 7 8 9 7 6 7 8 6 5 6 7 6 6 7 7 6 5 6 6 4
7 8 11 12 13 12 21 6 3 6 10 14 10 2 2 3 4 3 2 1 2 2 1 2 3 5 8 8 9 9 9 8 9 9 10 10 10 11 12 12 9 6 8 9 10 11 9 8 6 6 5 6 9 10 10 11 10 9 10 10 10 9 8 8 7 7 7 8 9 7 8 8 8 9 6 7 7 7 8 7 8 9 9 7 7 8 6
9 11 10 9 15 12 5 14 10 8 15 3 1 3 3 0 1 1 3 1 3 1 1 3 5 4 5 8 7 9 8 7 8 8 9 9 9 10 9 8 10 8 8 8 9 11 9 9 7 3 6 7 7 8 12 10 9 9 9 10 9 10 8 7 6 7 7 7 8 6 7 7 8 9 8 8 7 7 8 8 9 9 7 7 7 8 9
11 12 12 15 5 2 5 7 6 2 3 3 2 3 3 3 2 1 2 4 3 2 2 4 5 3 3 5 6 5 9 8 8 9 10 10 11 11 13 13 14 9 7 9 9 11 10 10 8 4 3 5 8 10 11 8 10 10 9 8 9 9 9 8 7 6 5 6 6 6 6 7 8 9 9 8 9 7 8 10 9 9 8 7 8 9 6
13 11 11 5 1 2 3 3 1 3 3 1 4 5 1 1 2 4 1 1 4 3 2 2 4 5 6 5 7 9 10 12 10 9 8 9 10 12 12 13 12 10 8 9 7 12 13 12 10 3 3 3 8 12 10 9 9 8 8 9 10 10 9 8 8 6 6 5 5 6 7 7 9 8 9 9 9 9 9 10 9 8 8 7 8 6 8
6 9 17 17 15 7 5 5 3 4 6 4 2 2 3 3 5 5 5 4 6 7 6 6 6 6 5 5 7 7 7 9 10 9 9 9 10 11 13 14 11 12 8 9 10 9 11 12 9 8 6 5 7 8 7 9 8 8 9 9 10 9 9 8 7 5 6 4 3 5 6 5 5 7 8 8 7 8 8 9 7 8 9 9 9 10 9
11 9 6 4 4 2 3 1 3 7 2 3 1 2 4 5 5 3 6 4 6 6 5 7 6 7 4 5 7 5 5 7 8 8 9 10 11 11 11 12 10 9 10 10 11 10 13 10 7 8 8 9 9 7 6 7 8 8 9 9 8 7 7 5 6 4 5 7 6 4 6 7 7 6 8 8 8 11 11 10 10 11 10 11 12 11 12
11 9 10 5 9 8 7 7 7 6 3 3 4 3 3 3 3 5 6 6 6 4 6 2 4 6 7 6 6 7 7 7 9 10 10 10 11 10 8 8 7 8 9 11 11 11 12 9 6 7 9 9 9 10 8 6 8 8 8 8 8 8 6 5 5 5 4 4 4 5 4 6 7 8 8 9 9 9 10 9 10 12 11 9 10 5 8
9 7 3 2 6 7 2 5 6 2 3 5 5 3 2 4 6 7 7 7 6 6 5 6 4 7 7 7 6 8 8 9 11 11 10 10 9 9 8 6 6 8 9 9 11 12 11 8 7 8 9 9 8 8 8 9 9 10 10 8 7 7 5 4 4 4 4 4 4 5 5 7 7 7 8 10 9 8 8 10 13 13 10 9 6 5 7
4 5 6 4 1 2 5 5 3 3 3 2 1 4 5 6 6 4 6 7 3 5 7 5 7 7 7 9 7 7 7 9 10 10 11 12 11 11 6 7 8 7 8 8 9 10 11 8 8 8 8 5 7 8 8 9 10 11 10 8 7 6 5 4 4 4 3 4 4 5 6 6 5 7 6 6 9 11 11 8 11 14 13 12 10 13 10
5 1 4 6 4 6 0 2 4 3 3 5 8 7 6 5 5 3 3 4 7 7 5 6 6 8 8 9 9 13 12 10 10 12 10 9 9 9 8 7 9 11 12 10 9 11 9 9 10 9 8 6 6 7 7 8 10 10 11 9 9 7 5 3 3 5 3 4 4 6 6 5 4 5 6 8 6 4 4 8 11 14 15 14 13 13 15
5 3 4 2 3 3 0 5 6 5 3 4 4 6 7 7 7 5 5 6 6 7 10 9 7 6 9 9 9 11 13 14 12 13 12 11 9 7 7 7 8 8 9 8 9 9 9 10 11 9 8 7 5 7 7 6 7 10 11 10 11 9 8 7 5 5 4 4 5 5 4 4 5 5 6 8 9 7 4 2 5 11 14 16 15 15 16
4 4 4 3 5 4 1 6 4 5 6 7 7 7 9 10 12 12 10 7 7 7 6 9 11 9 7 8 10 12 11 12 13 13 12 10 9 8 8 8 7 6 7 7 8 9 11 11 11 11 12 10 7 6 6 5 6 9 10 11 12 10 8 7 7 5 5 4 4 4 5 5 5 5 6 6 8 7 5 5 3 3 5 8 10 12 14
2 1 4 9 8 4 4 3 4 6 9 7 8 10 10 10 10 9 7 5 6 4 8 9 10 12 10 6 8 10 11 13 9 10 11 12 11 11 9 7 6 7 9 10 10 10 11 11 11 11 12 10 6 6 6 5 6 8 10 11 11 11 13 11 8 8 6 5 5 4 4 5 5 6 6 6 7 7 8 7 8 7 6 3 3 8 9
3 4 3 5 7 4 7 9 8 5 6 8 8 8 7 6 6 8 9 8 7 6 6 6 8 9 10 10 10 12 8 9 11 10 11 11 11 9 7 6 6 8 9 10 10 10 10 11 11 12 13 9 6 5 5 5 5 7 9 11 11 11 9 10 8 7 7 6 5 5 5 6 6 6 6 5 6 6 6 6 6 6 5 4 2 3 6
5 6 7 5 5 6 7 8 9 8 6 6 7 6 5 8 9 9 10 8 7 7 6 4 4 6 7 9 7 12 14 14 14 13 12 11 11 9 5 4 6 8 9 10 10 9 9 10 11 12 12 5 5 5 6 5 6 7 8 9 10 10 10 9 8 7 7 6 6 6 6 5 5 5 5 5 5 5 5 6 6 6 5 3 2 2 2
6 6 4 6 7 7 8 9 7 7 7 7 9 10 11 13 13 10 10 10 9 13 13 10 9 8 7 9 8 9 12 14 14 14 14 14 11 7 7 8 10 11 10 9 9 7 8 9 9 11 11 5 4 5 6 6 6 8 9 10 10 10 10 9 8 8 7 6 7 8 6 6 6 6 6 7 7 8 6 8 7 7 6 6 5 5 6
8 8 9 7 8 7 8 9 6 6 6 6 8 10 9 6 11 14 13 10 9 10 12 12 13 13 12 12 12 10 11 13 13 15 16 16 15 12 10 9 10 12 14 14 12 8 8 10 9 10 9 6 7 7 6 6 7 8 8 8 8 12 14 14 11 9 8 7 6 7 6 7 7 6 6 7 7 8 8 8 7 7 5 6 7 7 6
14 12 10 8 1 6 9 4 6 6 8 8 9 10 9 7 13 15 16 10 8 10 14 15 14 15 15 14 13 14 14 14 16 17 17 16 15 14 12 12 13 14 15 13 10 8 8 8 9 9 5 6 7 6 5 6 7 8 8 9 9 9 9 11 8 8 7 6 7 6 5 7 7 7 7 8 9 8 7 8 8 7 8 8 8 6 6
9 15 16 17 19 17 14 7 5 12 8 9 10 9 10 8 9 11 12 12 13 11 9 13 13 12 13 15 16 16 16 16 17 19 18 16 14 12 10 9 8 10 11 10 8 6 6 8 8 8 7 8 7 6 5 6 7 8 8 8 9 9 9 8 9 8 7 6 6 7 6 7 6 8 9 7 7 6 7 8 7 7 8 7 6 6 6
1 3 5 5 4 8 13 17 9 10 10 6 5 6 9 10 11 13 14 15 15 15 11 12 14 15 14 14 15 15 15 15 15 15 16 15 15 13 11 8 7 8 9 9 7 5 5 7 7 7 7 7 8 6 6 6 7 7 8 8 9 8 8 6 7 7 7 5 5 6 8 5 7 7 5 6 8 8 7 8 5 6 7 5 5 5 6
3 5 6 7 7 9 10 10 13 12 13 15 12 5 6 8 9 12 14 16 17 16 16 17 16 16 16 15 15 14 14 14 16 17 18 16 14 13 10 11 12 10 10 10 8 6 5 6 7 7 7 7 7 7 7 8 7 8 8 9 9 8 8 6 7 7 7 8 7 7 6 6 6 5 5 7 8 7 7 6 7 7 7 7 5 5 5
6 6 5 6 6 8 9 10 10 11 12 13 14 13 12 10 12 13 14 15 14 15 16 16 16 17 16 15 14 14 14 14 15 16 17 17 15 12 12 14 13 12 10 10 4 1 4 5 6 8 8 7 7 7 7 7 8 8 8 8 8 7 6 7 6 7 6 7 7 6 7 6 6 4 5 6 7 8 8 8 7 6 7 7 6 6 5
6 7 8 8 8 8 10 9 9 10 11 12 14 15 16 15 14 14 14 14 14 14 15 15 16 17 18 16 15 15 15 14 14 15 16 15 14 13 13 11 9 9 7 8 1 3 4 4 7 11 9 7 7 7 8 8 7 7 7 7 7 7 6 5 5 6 6 6 6 6 4 3 4 4 3 6 7 7 7 8 6 6 6 7 6 6 5
8 8 9 9 9 10 11 10 11 12 13 18 17 15 15 16 16 15 15 16 15 15 15 15 16 17 17 17 16 17 17 16 15 16 17 15 13 13 13 12 8 4 6 5 5 5 5 7 10 8 6 7 7 7 8 9 10 8 7 7 7 6 4 5 4 4 5 6 4 5 5 5 4 4 5 5 6 7 7 6 6 7 7 7 6 5 5
8 7 8 9 9 10 12 12 11 12 13 17 18 18 15 15 16 16 16 16 15 15 15 15 15 16 17 17 17 17 17 16 16 15 15 15 11 10 9 6 2 3 5 6 8 6 7 7 7 7 7 7 8 8 8 9 10 7 7 7 7 5 4 3 4 3 3 3 4 4 4 4 4 5 5 4 4 5 5 5 7 6 6 6 7 6 5
7 7 9 9 9 10 11 12 12 13 13 13 14 17 14 13 14 14 14 15 15 14 15 15 16 16 17 16 16 16 15 12 12 13 13 11 8 8 8 3 1 3 6 8 7 6 8 12 9 6 7 7 7 7 7 8 8 7 6 6 5 3 3 2 3 3 3 3 2 1 1 1 1 2 2 2 3 4 5 6 6 5 6 5 5 5 5
9 8 8 7 10 10 11 12 13 12 12 13 13 14 12 12 14 15 15 15 14 13 14 14 15 16 16 17 17 16 15 12 8 6 7 7 6 6 6 6 4 5 6 7 6 7 8 8 7 7 7 7 7 8 7 8 6 5 5 4 3 2 1 1 1 2 2 2 2 2 2 3 4 4 3 4 5 5 6 6 6 5 5 6 6 5 5
8 8 9 9 10 10 12 12 12 13 13 12 13 12 12 11 10 11 12 12 13 13 14 13 14 14 13 11 10 9 8 6 5 5 6 5 5 5 5 4 7 6 11 9 8 8 6 7 7 6 7 7 7 9 9 5 4 4 3 2 2 1 1 2 2 1 1 2 3 3 3 3 4 5 5 5 6 6 7 7 7 7 6 6 6 5 5
9 10 10 10 11 12 11 12 12 13 14 12 10 10 8 6 7 9 9 10 11 10 8 7 8 8 8 7 7 5 5 5 6 5 4 3 5 5 4 5 7 7 13 8 7 6 6 6 7 6 10 9 7 10 7 4 4 3 3 3 2 2 3 3 2 1 1 2 3 4 4 4 5 5 5 5 6 7 8 8 8 6 6 5 5 5 5
10 10 10 11 11 11 10 10 11 11 10 10 7 6 5 5 6 7 8 8 8 7 6 6 6 6 6 5 4 3 4 4 4 4 4 3 0 4 8 6 6 7 11 7 6 6 6 6 6 9 12 14 13 12 7 6 6 5 5 4 4 4 5 4 3 2 2 2 4 5 5 4 5 6 6 7 7 7 7 7 7 6 6 5 5 5 5
11 11 11 11 12 9 8 7 8 9 8 8 7 5 4 4 5 5 6 7 7 7 6 6 6 5 5 3 2 1 1 2 3 4 3 3 3 4 6 6 5 5 6 7 4 4 5 6 9 13 12 14 14 13 7 7 6 6 6 7 7 8 8 7 6 5 5 5 6 6 6 6 5 4 4 4 3 4 5 7 7 7 6 6 5 5 4
11 9 9 9 8 8 9 9 9 8 8 8 7 5 4 4 5 5 5 7 7 6 6 6 6 7 8 7 3 1 1 2 3 3 1 1 0 2 4 5 4 5 8 8 5 5 6 11 12 12 12 12 10 7 7 7 7 7 7 8 9 8 7 6 6 7 7 6 6 6 7 6 6 6 5 5 5 6 6 8 8 7 6 6 5 4 4
11 10 8 8 9 9 10 11 10 7 7 7 7 7 6 7 6 5 5 7 7 8 7 6 7 9 9 8 6 4 2 2 1 3 4 4 5 5 6 7 7 8 6 5 5 6 8 8 10 12 12 12 10 7 6 6 7 7 7 7 7 6 6 6 7 7 7 6 7 8 8 8 7 7 6 7 7 6 6 6 6 6 6 5 5 5 4
10 10 9 9 9 10 10 10 8 6 6 6 8 7 7 8 8 6 5 5 6 6 5 5 6 7 8 9 6 4 3 4 3 4 5 5 5 5 5 5 6 7 6 5 7 8 14 14 13 14 14 11 8 7 7 7 6 7 7 7 6 6 6 6 6 6 6 6 6 6 6 6 6 6 6 6 6 6 6 6 5 5 5 4 4 4 4
9 9 9 7 6 7 7 6 6 5 5 7 8 6 8 8 7 5 6 6 7 5 5 6 7 7 6 6 7 5 6 6 4 2 4 4 3 3 4 5 7 9 6 4 5 5 10 13 14 14 13 10 7 7 7 7 7 8 7 7 7 7 7 7 6 6 6 6 6 6 6 6 6 6 6 6 6 5 6 6 6 5 4 4 4 4 4
7 5 5 5 5 5 5 4 4 4 5 5 5 5 6 6 4 5 5 5 5 5 4 4 5 5 6 6 6 6 7 7 6 5 4 4 5 4 4 4 5 7 7 5 6 6 8 12 12 12 9 6 6 6 7 7 7 7 7 7 6 6 7 7 7 8 6 6 6 5 5 5 5 5 5 5 5 4 4 5 4 6 7 5 3 3 3
5 4 4 5 5 5 4 2 3 4 4 4 5 5 5 4 3 4 4 6 5 5 5 5 5 6 6 6 6 6 6 6 6 6 5 5 5 5 6 5 5 5 5 5 5 5 5 6 6 7 7 6 6 6 6 6 6 6 6 6 6 5 5 6 5 5 5 5 5 5 5 5 5 5 5 4 4 4 4 4 3 3 3 3 3 2 2
7 6 5 4 4 4 4 2 1 3 4 4 4 4 4 4 4 4 4 7 6 5 5 6 5 5 5 5 6 5 5 5 5 5 5 5 5 4 5 6 4 5 6 5 5 5 5 5 5 7 7 6 6 5 6 7 6 5 5 6 5 5 5 5 5 4 4 5 5 5 5 4 4 4 4 4 4 4 3 3 3 3 2 2 2 2 2
Wind_Direction
238 243 241 142 149 227 238 220 217 214 212 218 222 232 242 243 238 253 243 234 235 250 262 271 271 277 281 292 286 288 284 275 255 257 262 263 268 276 278 273 280 293 295 287 286 288 290 294 284 275 275 264 251 256 256 259 252 240 218 216 228 225 228 236 237 232 235 235 232 230 230 231 232 231 231 230 227 228 222 221 222 225 223 220 218 217 218
237 239 240 207 206 234 244 240 237 243 218 217 222 229 230 229 235 239 247 255 250 247 262 272 276 280 289 288 289 282 268 271 274 264 263 264 270 275 282 297 299 287 277 278 280 285 285 285 288 289 281 265 253 257 265 246 236 239 203 228 227 224 226 233 235 223 234 235 231 228 226 227 230 228 229 228 227 228 229 226 227 225 227 223 220 219 218
248 249 248 231 222 222 240 242 245 241 263 261 238 244 243 241 240 238 234 239 250 255 267 275 280 277 275 276 273 270 268 278 264 255 257 258 256 272 296 296 284 280 278 275 278 275 270 271 271 276 281 280 277 266 257 260 249 223 198 230 231 233 237 235 230 228 228 236 232 231 229 228 227 225 221 216 219 225 228 226 225 223 221 223 223 222 220
246 241 242 240 231 231 243 248 244 241 236 242 231 229 222 230 237 238 242 241 245 251 252 263 276 279 272 263 265 273 284 254 225 242 253 259 265 272 267 263 270 279 281 277 270 273 281 277 261 271 278 275 272 263 263 257 242 198 210 228 235 242 250 252 231 227 229 232 233 234 229 227 223 223 221 217 221 222 223 223 223 219 223 225 227 224 225
238 243 230 243 251 266 255 238 233 232 232 228 234 239 239 240 246 254 243 247 239 242 248 259 267 274 275 273 272 273 279 280 270 265 263 261 261 253 250 260 271 276 277 279 281 284 286 286 277 264 269 279 272 269 289 295 199 206 218 228 236 245 243 240 240 226 225 229 233 232 226 228 220 215 219 225 226 220 221 215 203 214 224 223 227 225 223
254 251 222 216 244 242 238 231 227 224 236 239 242 244 242 242 234 239 242 251 254 253 244 245 259 268 274 276 273 263 268 285 283 264 239 244 263 268 268 263 265 273 277 279 282 283 283 279 271 276 278 277 289 321 315 291 247 234 222 229 230 247 253 244 236 226 216 222 235 234 228 221 219 219 219 226 225 221 213 199 210 219 221 222 222 220 218
243 230 120 228 241 243 241 246 265 252 247 246 247 245 242 239 238 241 246 253 258 257 257 259 258 258 263 266 271 276 256 239 262 273 280 278 267 259 261 269 274 273 273 279 283 285 289 294 298 305 301 297 289 273 258 261 239 240 226 233 234 236 244 246 237 233 218 215 229 231 222 219 215 220 222 228 223 216 205 204 205 210 210 214 216 214 214
260 268 237 240 233 248 269 283 258 243 242 242 241 248 248 247 245 242 243 247 250 250 250 249 250 255 262 270 275 277 272 250 260 281 282 272 266 270 263 257 265 267 278 286 292 298 303 305 301 304 293 274 266 269 264 252 274 265 264 253 253 242 246 245 238 234 227 227 225 220 217 211 219 221 218 217 217 208 202 209 209 204 212 206 207 208 208
230 236 246 244 320 300 275 266 243 207 212 217 223 249 252 244 237 234 240 242 244 245 247 250 255 260 268 274 276 271 259 264 264 245 260 263 267 269 278 288 297 302 299 290 290 296 303 309 314 309 297 286 269 275 279 271 273 259 247 252 250 243 246 246 237 231 222 225 229 222 213 214 220 223 218 215 213 195 201 204 202 203 207 204 206 207 209
209 259 271 271 254 253 267 232 237 230 197 230 232 235 263 258 251 233 227 234 238 243 248 250 251 257 269 269 272 274 302 118 231 220 275 313 299 279 271 282 288 290 292 304 308 313 313 310 300 289 289 289 288 282 280 276 265 251 230 247 250 254 254 243 237 228 219 216 225 224 217 221 221 223 220 218 214 199 203 201 206 206 193 196 200 202 202
234 234 245 242 237 243 245 278 270 186 184 219 233 235 254 257 256 240 234 235 239 241 244 246 248 253 249 253 258 284 86 55 76 341 268 266 301 305 295 289 296 304 311 320 311 306 296 291 303 309 303 299 291 286 281 266 235 246 236 232 238 242 244 237 237 233 214 209 217 217 219 229 224 219 213 212 206 194 216 212 216 198 192 196 201 205 208
232 232 234 244 227 254 258 255 280 205 191 205 184 235 247 242 252 253 237 234 240 243 242 244 246 237 244 247 257 39 9 353 67 245 305 307 316 302 298 283 269 289 302 312 300 298 302 300 316 316 308 297 288 283 283 282 268 257 252 236 232 234 246 248 245 242 225 216 218 216 225 230 233 234 228 212 206 204 214 214 211 206 209 211 207 214 200
228 227 242 251 258 251 259 264 245 133 116 136 195 225 238 250 47 43 236 221 230 240 247 252 258 249 267 301 349 8 6 347 341 338 307 301 304 308 311 309 323 303 297 282 286 288 290 298 309 310 306 299 290 290 288 282 278 285 268 247 245 248 240 232 230 231 229 221 226 226 224 225 221 229 222 219 205 201 202 205 202 207 210 215 213 216 208
225 226 232 238 259 253 250 266 140 144 136 232 236 236 231 121 106 69 194 133 65 84 98 70 300 314 334 316 331 348 353 351 322 328 334 328 309 272 268 286 300 302 308 305 297 290 279 300 301 300 304 297 292 299 300 292 291 290 288 280 269 257 248 239 225 227 228 229 226 230 224 214 215 218 213 206 205 201 204 198 200 210 210 213 215 214 210
218 221 234 232 249 238 234 197 22 197 219 243 247 54 294 37 140 174 156 69 119 147 82 124 305 315 334 342 338 338 336 343 333 327 324 322 319 318 323 321 312 323 309 310 304 300 307 312 305 304 304 292 292 296 289 286 299 304 299 293 283 274 265 253 244 240 234 224 225 219 218 210 212 221 205 201 203 196 202 201 201 206 208 210 210 213 209
206 199 209 215 220 247 120 166 209 180 221 248 92 213 184 97 340 349 32 330 299 335 17 344 341 344 344 325 337 327 320 324 323 313 309 315 316 313 305 279 289 315 296 288 293 296 305 305 301 305 297 294 292 288 281 291 302 299 298 294 294 287 279 267 256 248 242 236 230 223 220 211 211 215 206 203 202 203 202 203 208 204 200 198 208 210 206
198 209 216 225 250 196 208 209 195 238 293 35 150 37 58 84 340 334 53 347 323 235 307 325 302 310 299 298 303 299 300 309 308 312 313 314 309 307 307 306 310 309 287 294 297 300 300 301 299 298 273 280 288 285 285 303 302 304 302 303 298 290 283 275 264 255 241 238 231 222 220 209 216 216 213 197 207 206 201 207 206 206 205 192 204 210 201
221 255 249 243 202 277 262 263 205 232 240 312 103 94 70 156 307 251 243 188 270 279 218 209 283 242 268 290 309 316 321 320 318 314 313 308 306 306 304 304 304 301 300 294 290 288 295 295 299 298 278 267 280 282 299 305 299 298 298 297 293 285 285 278 269 259 250 239 222 223 215 214 219 220 214 207 209 207 207 214 209 205 206 196 199 195 205
163 236 233 228 237 212 244 271 249 210 226 215 152 84 116 18 273 249 243 212 232 220 201 215 241 249 226 244 257 272 286 285 285 284 284 286 279 286 292 292 302 306 302 296 291 292 292 293 298 302 299 281 267 283 294 296 297 293 290 284 283 286 284 283 274 256 246 234 208 213 215 217 215 221 218 218 212 211 208 207 201 205 206 206 199 202 204
204 236 65 47 35 213 279 234 290 277 189 104 121 193 162 164 221 234 265 240 239 210 215 223 221 247 230 241 269 272 268 266 269 265 255 256 266 267 264 275 282 279 279 283 291 295 292 293 297 297 299 297 298 296 292 296 298 292 281 274 275 280 281 279 277 249 236 232 226 219 211 214 218 215 220 216 215 215 208 203 196 205 204 206 204 199 202
248 296 277 287 308 290 243 246 266 267 321 143 145 196 214 215 252 254 256 230 241 195 235 185 226 260 260 247 251 262 259 244 241 244 247 245 243 252 259 259 257 269 284 290 290 292 287 290 298 295 293 296 303 310 310 308 299 290 279 274 270 269 268 266 262 256 242 238 227 231 217 214 223 223 217 218 224 235 228 221 218 216 217 226 220 210 199
238 234 225 154 257 262 317 218 209 178 101 133 152 150 210 224 233 239 252 258 235 241 249 242 230 240 260 253 229 236 242 253 269 274 274 275 273 265 258 265 273 276 272 274 286 291 291 295 296 292 295 297 302 305 312 313 308 298 294 289 276 267 258 254 258 252 249 242 236 236 234 231 225 234 235 236 234 232 240 221 230 239 241 237 225 205 213
253 138 190 200 240 308 231 261 94 104 167 189 209 203 226 228 215 247 273 289 253 225 249 232 236 253 253 269 254 254 257 274 281 281 288 297 303 302 300 299 291 283 285 284 283 285 289 296 292 293 291 293 299 303 308 307 303 294 293 290 280 271 261 246 235 244 248 248 238 244 242 237 232 230 232 230 244 251 254 237 223 230 239 247 237 219 217
258 192 205 201 187 253 17 345 313 338 354 321 304 316 319 320 315 255 245 247 290 280 224 226 226 254 266 271 284 289 289 282 284 287 283 278 278 288 294 290 294 301 304 305 302 298 301 299 293 290 285 282 289 297 301 300 300 294 287 284 285 283 279 265 237 227 236 243 248 246 244 232 227 229 229 237 230 230 294 268 238 228 230 229 225 218 220
242 155 241 341 290 318 19 284 278 267 292 326 347 337 325 320 303 271 261 276 239 270 293 286 263 231 260 276 270 277 286 294 293 291 293 290 276 268 275 278 278 281 289 296 297 299 296 296 295 292 284 279 283 292 293 291 292 291 286 280 277 279 278 272 259 226 223 220 227 228 232 227 230 221 228 224 229 229 219 333 276 246 236 230 223 220 216
28 312 312 278 264 275 213 283 304 74 63 28 346 317 304 297 294 299 291 288 283 271 268 283 293 283 246 266 281 281 283 284 292 298 301 298 303 299 291 284 282 283 283 287 289 293 294 292 292 292 290 289 292 290 294 285 283 285 285 281 278 274 274 269 265 252 225 208 210 222 224 234 230 225 225 220 223 224 221 214 242 277 272 247 234 222 222
57 244 314 325 313 346 55 312 297 30 347 336 298 286 284 281 280 280 292 290 274 278 267 273 277 286 291 268 260 264 271 284 286 283 285 291 293 291 292 298 299 296 297 299 299 295 294 293 293 289 286 292 295 298 292 289 288 290 288 285 283 273 259 255 258 258 243 220 212 205 213 217 222 223 222 221 221 221 215 212 213 214 217 236 255 223 213
322 345 28 271 288 339 304 309 317 326 306 287 284 283 283 283 299 294 293 297 289 268 257 254 269 279 286 292 295 291 279 271 279 280 282 278 281 284 285 290 295 297 297 295 292 294 293 292 290 287 285 293 296 298 294 284 284 282 286 286 283 279 276 252 241 246 245 233 212 203 205 211 216 221 221 216 214 218 212 212 214 207 212 216 232 255 209
39 5 354 329 314 305 297 295 301 304 292 295 294 295 314 312 298 290 293 306 307 305 299 295 254 266 277 289 295 292 295 295 294 291 285 286 291 293 284 285 284 287 285 282 281 280 280 282 284 284 284 304 308 317 300 292 286 283 282 283 283 281 277 269 256 244 238 234 223 208 196 200 198 206 211 216 211 207 207 205 206 201 195 171 146 164 200
331 306 268 264 264 267 271 275 288 307 313 321 343 349 351 341 326 322 327 331 335 319 313 323 323 316 315 301 292 285 290 296 301 304 304 302 302 299 300 301 300 286 271 263 264 266 273 275 281 283 294 329 338 319 305 291 283 279 276 275 276 277 279 277 266 256 245 229 223 205 200 192 196 194 202 209 209 208 202 203 193 187 179 181 189 186 178
286 257 250 245 235 231 247 286 307 317 348 23 354 332 329 341 315 305 307 313 314 303 304 309 306 303 300 294 296 297 297 297 297 295 293 293 295 295 293 292 288 289 292 292 295 292 283 284 281 281 297 321 317 315 307 293 292 289 283 278 271 268 267 272 268 261 253 243 222 210 204 194 188 185 190 200 208 212 212 206 189 188 182 180 188 190 182
309 308 296 273 280 321 307 322 345 332 329 330 328 323 325 327 309 301 302 300 294 301 303 305 306 306 304 305 304 302 299 294 291 289 287 289 291 291 286 277 268 268 275 283 287 287 283 279 272 284 321 320 310 308 300 296 294 288 284 287 284 282 275 267 262 258 256 251 239 221 212 200 197 188 188 197 207 207 199 198 196 188 192 184 188 177 167
336 321 312 331 336 326 318 318 2 316 324 315 309 309 309 301 293 292 295 304 311 305 302 298 298 300 306 306 303 301 299 298 292 288 288 289 290 293 295 285 272 275 282 288 295 291 279 277 281 306 312 300 300 288 283 281 284 281 283 284 285 282 283 276 268 267 254 248 241 231 219 215 211 201 199 188 189 192 195 197 192 188 188 185 173 165 171
275 261 307 332 251 290 312 311 337 321 311 292 275 308 316 317 321 314 312 313 306 303 305 307 306 305 301 297 294 292 292 292 289 288 293 297 301 304 304 303 301 295 287 299 301 284 276 278 289 295 297 301 291 284 278 273 274 275 276 280 279 283 280 274 270 260 258 247 244 241 236 224 218 214 193 182 182 187 192 191 185 185 180 167 164 158 169
309 291 291 283 288 285 291 292 306 313 315 312 313 321 309 299 302 300 302 306 304 307 311 309 307 305 302 298 295 290 288 282 285 290 293 296 299 304 317 312 301 289 281 276 271 270 282 290 293 294 298 292 288 281 281 277 277 277 277 276 276 277 280 281 272 262 259 258 248 237 227 223 216 216 198 182 178 180 182 184 178 175 167 172 157 152 141
326 308 300 291 283 285 286 287 290 293 295 294 297 304 307 304 304 298 298 294 298 302 304 305 306 305 300 298 297 296 294 293 293 293 293 294 297 300 299 296 292 288 284 285 251 223 314 294 287 294 296 291 286 278 271 279 284 282 280 280 278 275 271 271 273 273 269 263 254 249 241 236 219 202 196 189 172 169 180 178 166 163 176 174 161 150 136
312 299 295 294 291 291 288 287 287 294 289 290 293 299 299 300 296 294 295 294 294 294 297 299 299 298 297 296 294 293 290 290 292 290 290 292 296 298 297 290 282 272 286 288 329 50 306 289 304 306 297 283 282 277 278 278 283 282 280 275 271 269 268 265 262 262 263 262 265 256 247 231 211 206 197 188 178 166 160 172 155 158 164 163 153 153 146
303 301 295 291 293 293 288 284 287 286 287 287 285 284 287 292 296 295 293 294 294 296 295 292 289 290 291 293 291 289 289 290 289 288 288 291 298 297 293 290 291 302 282 282 353 339 304 310 311 299 283 280 279 285 286 283 282 281 271 267 264 264 262 262 263 258 261 259 261 252 241 225 208 186 193 197 177 160 155 155 150 154 154 158 158 152 146
283 281 277 280 282 282 284 286 283 277 273 275 279 281 279 281 283 286 286 287 290 293 291 287 288 288 287 288 288 287 288 291 294 296 298 302 305 292 284 313 324 307 288 313 318 307 309 312 308 299 288 283 287 284 284 283 283 277 273 271 268 259 255 252 256 256 256 257 250 246 240 235 213 197 192 186 171 146 132 132 143 143 137 142 146 146 132
276 276 278 284 281 279 280 280 279 276 272 267 272 278 284 284 283 283 282 282 282 282 281 283 285 284 285 285 286 287 291 306 314 308 303 302 301 294 290 285 328 340 326 318 316 312 317 318 310 300 300 301 301 299 299 295 289 282 273 270 268 269 259 249 249 246 239 227 221 245 227 216 172 156 150 140 124 125 127 126 124 113 104 104 104 118 124
275 277 278 276 276 280 278 278 276 271 270 272 272 275 280 280 281 281 281 282 284 282 278 276 278 279 279 283 288 293 302 309 315 322 319 307 295 293 297 302 18 19 334 340 327 323 321 319 319 313 313 314 311 308 305 298 290 279 279 281 280 277 276 261 235 232 211 173 165 150 124 106 92 86 88 92 101 102 104 102 102 92 99 115 109 78 57
285 290 287 285 281 280 279 279 282 283 276 271 272 276 277 277 279 278 282 283 283 281 277 275 275 280 287 293 294 298 306 323 340 349 14 14 352 330 321 325 13 357 346 343 335 333 329 331 328 322 322 318 311 314 317 308 306 304 304 310 329 349 25 46 51 27 36 78 81 92 90 89 93 101 95 93 97 97 99 97 93 86 79 71 76 71 72
290 288 282 279 277 278 276 279 279 279 281 278 274 273 274 281 282 282 284 282 281 286 293 296 302 305 309 310 305 307 321 338 337 333 353 45 44 24 1 319 344 352 357 350 345 338 337 332 335 331 338 341 339 338 336 346 342 346 355 358 4 23 48 40 35 14 30 81 96 92 98 100 104 107 105 101 105 105 102 96 89 75 66 61 62 63 67
276 272 268 270 271 273 277 278 280 281 280 281 274 263 270 280 278 281 290 294 295 298 300 307 312 310 311 318 337 345 346 352 348 329 319 291 95 44 24 350 355 352 0 355 347 345 339 336 340 347 353 5 8 10 10 10 12 16 15 15 24 33 41 45 33 14 32 52 86 105 102 107 115 121 117 119 115 104 97 93 92 86 79 68 59 60 61
281 277 278 276 277 282 282 280 280 284 287 289 288 274 266 274 286 291 300 313 316 315 318 315 315 313 312 318 347 351 7 358 351 341 344 321 338 347 8 354 358 354 352 349 343 336 332 345 355 7 19 20 23 18 20 18 18 27 27 32 34 38 41 39 34 32 41 56 70 79 84 89 74 71 72 70 48 74 87 96 93 93 93 93 92 86 88
291 297 299 299 301 296 293 292 289 285 289 299 297 284 259 282 304 311 312 319 324 323 323 322 323 330 330 320 304 126 74 43 23 16 32 52 5 311 337 349 358 357 341 339 340 340 341 352 6 16 25 28 26 32 32 33 29 25 31 30 32 31 26 21 19 16 18 21 33 47 59 59 56 57 57 62 53 58 64 77 87 86 87 97 100 101 105
305 309 314 313 310 313 317 315 316 318 321 325 326 328 330 333 333 327 327 332 332 329 328 331 339 343 350 352 344 319 319 354 41 25 7 358 4 356 355 353 351 350 353 359 9 11 7 0 10 20 27 30 33 38 29 28 35 37 33 37 35 40 38 35 35 39 33 29 35 44 46 45 46 46 47 50 51 53 58 65 65 78 82 84 88 87 91
312 316 319 325 324 326 330 332 339 337 338 337 327 317 327 333 331 328 328 342 349 344 344 352 351 351 357 2 1 358 339 316 342 31 22 2 10 357 353 358 355 347 347 1 15 19 16 15 18 24 34 37 36 40 35 31 27 33 39 37 35 27 24 32 35 34 37 38 31 30 36 36 36 41 40 39 39 39 42 50 56 62 63 70 77 82 87
310 310 313 311 309 320 330 331 332 330 330 325 325 321 327 327 326 339 345 333 335 348 353 350 346 348 351 4 10 6 9 15 22 8 1 2 1 353 342 336 348 353 355 6 13 18 11 14 19 22 29 31 35 31 33 35 34 39 38 32 28 24 23 29 27 27 35 33 38 44 50 50 52 51 51 48 44 41 45 48 51 51 53 58 60 62 69
307 314 313 312 308 308 319 328 326 317 311 318 317 317 318 328 341 350 348 343 335 327 337 355 5 358 356 357 7 9 9 7 8 2 350 347 355 360 353 354 359 2 7 10 11 21 9 8 15 20 26 30 28 29 33 38 39 37 39 35 32 34 32 31 35 30 28 30 32 32 32 36 41 50 58 62 60 55 51 55 60 66 63 61 63 61 67
310 303 299 299 295 289 265 256 301 302 305 309 313 314 326 336 332 330 341 343 337 343 345 346 6 10 359 358 1 4 2 358 359 358 354 353 353 1 6 5 9 9 9 17 19 13 18 15 11 11 18 27 26 25 27 29 31 34 32 34 27 27 27 28 28 29 25 23 31 34 35 36 33 36 43 49 54 60 59 61 62 64 64 72 69 78 77
281 280 278 287 289 291 276 237 308 315 309 314 320 333 341 340 331 331 340 355 348 340 337 335 343 5 0 350 355 356 356 356 353 350 360 1 359 3 0 9 16 12 17 19 13 15 24 19 15 19 20 28 30 30 29 32 33 34 29 27 26 29 28 24 21 23 22 21 31 40 33 30 34 42 41 39 39 42 47 49 51 54 60 62 81 78 89